Weather History for PHBK - January, 2014

Change the Weather History Date:

Thursday, January 23, 2014

  Actual Average (WUND) Record (WUND)
Temperature  
Mean Temperature 67 °F -  
Max Temperature 73 °F - - (-1)
Min Temperature 61 °F - - (-1)
Cooling Degree Days 2    
Growing Degree Days 17 (Base 50)    
Moisture  
Dew Point 53 °F    
Average Humidity 58    
Maximum Humidity 75    
Minimum Humidity 47    
Precipitation  
Precipitation 0.01 in - - ()
Sea Level Pressure  
Sea Level Pressure 29.94 in    
Wind  
Wind Speed 8 mph (North)    
Max Wind Speed 14 mph    
Max Gust Speed -    
Visibility 9 miles    
Events      
Averages and records for this station are not official NWS values.
T = Trace of Precipitation, MM = Missing Value Source: NWS Daily Summary

Daily Weather History Graph

Daily Weather History Graph

Search for Another Location

Airport or City:

Trip Planner

Search our weather history database for the weather conditions in past years. The results will help you decide how hot, cold, wet, or windy it might be!

Date:

Astronomy

Jan. 23, 2014 Rise Set
Actual Time 7:19 AM HST 6:22 PM HST
Civil Twilight 6:56 AM HST 6:46 PM HST
Nautical Twilight 6:29 AM HST 7:13 PM HST
Astronomical Twilight 6:02 AM HST 7:40 PM HST
Moon 12:12 AM HST (1/23) 11:58 AM HST (1/23)
Length of Visible Light 11h 50m
Length of Day
11h 02m
Waning Gibbous, 53% of the Moon is Illuminated
Jan 23
Waning Gibbous
Jan 23
Last Quarter
Jan 30
New
Feb 6
First Quarter
Feb 14
Full

Hourly Weather History & Observations

Time (HST) Temp. Dew Point Humidity Pressure Visibility Wind Dir Wind Speed Gust Speed Precip Events Conditions
12:56 AM 62.1 °F 52.0 °F 70% 29.94 in 10.0 mi East 6.9 mph - N/A   Overcast
1:56 AM 66.9 °F 53.1 °F 61% 29.92 in 8.0 mi North 11.5 mph - 0.01 in   Overcast
2:56 AM 66.0 °F 51.1 °F 59% 29.92 in 10.0 mi NNE 8.1 mph - N/A   Overcast
3:56 AM 62.1 °F 51.1 °F 67% 29.91 in 10.0 mi ENE 8.1 mph - N/A   Overcast
4:56 AM 61.0 °F 51.1 °F 70% 29.90 in 10.0 mi East 4.6 mph - N/A   Overcast
5:56 AM 62.1 °F 51.1 °F 67% 29.94 in 10.0 mi ENE 8.1 mph - N/A   Overcast
6:56 AM 61.0 °F 51.1 °F 70% 29.95 in 10.0 mi East 8.1 mph - N/A   Overcast
7:56 AM 63.0 °F 51.1 °F 65% 29.98 in 10.0 mi ENE 6.9 mph - N/A   Overcast
8:56 AM 69.1 °F 54.0 °F 58% 29.99 in 10.0 mi ENE 3.5 mph - N/A   Overcast
9:56 AM 72.0 °F 53.1 °F 51% 29.98 in 10.0 mi NNW 6.9 mph - N/A   Mostly Cloudy
10:07 AM 71.6 °F 51.8 °F 50% 29.97 in 6.2 mi NNW 6.9 mph - N/A   Mostly Cloudy
10:36 AM 73.4 °F 53.6 °F 50% 29.97 in 10.0 mi NNW 9.2 mph - N/A   Mostly Cloudy
10:49 AM 73.4 °F 51.8 °F 47% 29.96 in 10.0 mi North 6.9 mph - N/A   Scattered Clouds
10:56 AM 73.0 °F 52.0 °F 48% 29.97 in 10.0 mi Variable 5.8 mph - N/A   Scattered Clouds
11:08 AM 73.4 °F 53.6 °F 50% 29.96 in 10.0 mi NNW 8.1 mph - N/A   Mostly Cloudy
11:25 AM 73.4 °F 53.6 °F 50% 29.95 in 10.0 mi NNW 5.8 mph - N/A   Mostly Cloudy
11:41 AM 73.4 °F 51.8 °F 47% 29.95 in 10.0 mi NNW 5.8 mph - N/A   Scattered Clouds
11:56 AM 73.0 °F 53.1 °F 49% 29.94 in 10.0 mi NW 6.9 mph - N/A   Mostly Cloudy
12:11 PM 73.4 °F 53.6 °F 50% 29.92 in 10.0 mi NNW 8.1 mph - N/A   Mostly Cloudy
12:49 PM 73.4 °F 55.4 °F 53% 29.91 in 6.2 mi NW 10.4 mph - N/A   Scattered Clouds
12:56 PM 73.9 °F 54.0 °F 50% 29.92 in 8.0 mi NW 11.5 mph - N/A   Scattered Clouds
1:56 PM 73.9 °F 55.0 °F 52% 29.88 in 10.0 mi NW 10.4 mph - N/A   Scattered Clouds
2:56 PM 73.9 °F 55.0 °F 52% 29.89 in 10.0 mi NW 9.2 mph - N/A   Scattered Clouds
3:56 PM 73.9 °F 54.0 °F 50% 29.91 in 9.0 mi NW 11.5 mph - N/A   Scattered Clouds
4:17 PM 73.4 °F 55.4 °F 53% 29.91 in 6.2 mi NW 12.7 mph - N/A   Mostly Cloudy
4:34 PM 73.4 °F 55.4 °F 53% 29.92 in 6.2 mi NW 13.8 mph - N/A   Mostly Cloudy
4:56 PM 72.0 °F 54.0 °F 53% 29.92 in 8.0 mi NW 11.5 mph - N/A   Mostly Cloudy
5:56 PM 72.0 °F 54.0 °F 53% 29.93 in 9.0 mi NW 9.2 mph - N/A   Mostly Cloudy
6:56 PM 71.1 °F 54.0 °F 55% 29.93 in 9.0 mi NW 5.8 mph - N/A   Scattered Clouds
7:56 PM 64.0 °F 55.0 °F 73% 29.95 in 10.0 mi Calm Calm - N/A   Partly Cloudy
8:56 PM 63.0 °F 55.0 °F 75% 29.98 in 10.0 mi NE 5.8 mph - N/A   Clear
9:56 PM 64.0 °F 55.0 °F 73% 29.98 in 10.0 mi Calm Calm - N/A   Partly Cloudy
10:56 PM 64.0 °F 55.9 °F 75% 29.98 in 10.0 mi ENE 3.5 mph - N/A   Overcast
11:56 PM 71.1 °F 57.0 °F 61% 29.96 in 9.0 mi WNW 8.1 mph - N/A   Overcast